{"data":{"norad_id":46356,"intl_designator":"2020-062AH","name":"STARLINK-1665","alt_names":[],"object_type":"PAYLOAD","status":"ACTIVE","operator":null,"country":"US","launch_date":"2020-09-03","launch_site_code":"AFETR","launch_vehicle":null,"mission":null,"orbit_class":"UNKNOWN","rcs_meters":null,"size_class":null,"mass_kg":null,"dimensions":null,"purposes":["comms"],"wikipedia_slug":null,"has_3d_model":false,"image_url":null,"decayed_at":null,"tle_current":{"epoch":"2026-06-27T02:21:32.035680Z","epoch_age_seconds":7400597,"freshness":"OLD","line1":"1 46356U 20062AH  26178.09828745  .09495866  12368-4  50765-3 0  9998","line2":"2 46356  53.0154 147.1846 0007262 242.6624 117.3684 16.42186075322173","mean_motion":16.42186075,"eccentricity":0.0007262,"inclination_deg":53.0154,"raan_deg":147.1846,"arg_perigee_deg":242.6624,"mean_anomaly_deg":117.3684,"bstar":0.00050765,"rev_number":32217,"period_min":87.687992361036,"perigee_km":155.24570652316,"apogee_km":164.74168754753,"semimajor_km":6538.1306970353,"source":"CELESTRAK","updated_at":"2026-06-27T09:00:37.704955Z"}}}